contact:dominique.lefevre@mio.osupytheas.fr, maurice.libes@osupytheas.fr, didier.mallarino@osupytheas.fr
Project:EMSO http://www.emso-fr.org/EMSO-France
Depth: 2436.0 m
Title:EMSO Ligure Ouest : Data MII capteur AQUADOPP
Date,Latitude,Longitude,X_East,Y_North,Z_Up,Amplitude_X,Amplitude_Y,Amplitude_Z,Batterie,SoundSpeed,Heading,Pitch,Roll,Pressure,TIS,Speed,Direction
, degrees North, degrees East, m.s-1, m.s-1,m.s-1, 1, 1, 1, Volt, m.s-1, degree, degree, degree, dbar, degree_C, m.s-1, degree
2023-06-28T00:04:03,42.805,6.029,0.018,-0.001,-0.002,101.0,102.0,101.0,13.4,1505.2,332.3,-0.8,1.8,2471.487,13.28,0.018,93.2
2023-06-28T00:07:03,42.805,6.029,0.023,-0.004,0.005,102.0,102.0,101.0,13.4,1505.2,332.9,-0.8,1.8,2471.474,13.28,0.023,99.9
2023-06-28T00:10:03,42.805,6.029,0.039,0.006,0.01,101.0,103.0,100.0,13.4,1505.2,336.6,-0.7,1.8,2471.482,13.28,0.039,81.3
2023-06-28T00:13:03,42.805,6.029,0.014,0.0,-0.003,101.0,102.0,101.0,13.4,1505.2,323.4,-0.8,1.9,2471.509,13.28,0.014,90.0
2023-06-28T00:16:03,42.805,6.029,0.028,0.016,0.014,102.0,102.0,100.0,13.3,1505.2,329.0,-0.7,1.8,2471.494,13.29,0.032,60.3
2023-06-28T00:19:03,42.805,6.029,0.044,-0.004,0.011,101.0,102.0,101.0,13.4,1505.2,327.8,-0.8,1.8,2471.451,13.29,0.044,95.2
2023-06-28T00:22:03,42.805,6.029,0.025,0.002,-0.004,100.0,103.0,100.0,13.3,1505.2,322.4,-0.8,1.8,2471.502,13.29,0.025,85.4
2023-06-28T00:25:03,42.805,6.029,0.031,-0.007,-0.016,103.0,101.0,101.0,13.3,1505.2,328.5,-0.8,1.8,2471.409,13.29,0.031,102.7
2023-06-28T00:28:03,42.805,6.029,0.01,0.0,-0.019,102.0,102.0,101.0,13.4,1505.2,342.7,-0.8,1.8,2471.449,13.29,0.01,90.0
2023-06-28T00:31:03,42.805,6.029,0.046,-0.013,-0.005,102.0,102.0,101.0,13.3,1505.2,333.4,-0.8,1.8,2471.462,13.29,0.047,105.8
2023-06-28T00:34:03,42.805,6.029,0.038,0.009,-0.007,102.0,102.0,101.0,13.4,1505.2,324.2,-0.8,1.9,2471.431,13.29,0.039,76.7
2023-06-28T00:37:03,42.805,6.029,0.023,-0.003,-0.015,102.0,103.0,101.0,13.4,1505.2,342.3,-0.8,1.8,2471.427,13.29,0.023,97.4
2023-06-28T00:40:03,42.805,6.029,0.024,-0.015,-0.013,103.0,103.0,100.0,13.4,1505.2,347.9,-0.8,1.8,2471.448,13.29,0.028,122.0
2023-06-28T00:43:03,42.805,6.029,0.039,-0.014,0.0,102.0,102.0,100.0,13.4,1505.2,337.3,-0.7,1.8,2471.465,13.29,0.041,109.7
2023-06-28T00:46:03,42.805,6.029,0.026,-0.005,-0.008,101.0,102.0,101.0,13.3,1505.2,332.9,-0.8,1.8,2471.444,13.29,0.026,100.9
2023-06-28T00:49:03,42.805,6.029,0.024,-0.03,-0.018,102.0,102.0,100.0,13.4,1505.2,350.9,-0.7,1.8,2471.437,13.29,0.038,141.3
2023-06-28T00:52:03,42.805,6.029,0.005,-0.02,-0.048,102.0,102.0,101.0,13.4,1505.2,343.6,-0.8,1.8,2471.439,13.29,0.02,166.0
2023-06-28T00:55:03,42.805,6.029,0.029,0.026,-0.005,100.0,102.0,101.0,13.3,1505.2,328.5,-0.8,1.8,2471.44,13.29,0.038,48.1
2023-06-28T00:58:03,42.805,6.029,0.063,-0.053,-0.046,102.0,101.0,100.0,13.4,1505.2,328.2,-0.8,1.8,2471.481,13.29,0.082,130.1
2023-06-28T01:01:03,42.805,6.029,0.05,0.003,-0.007,101.0,102.0,100.0,13.4,1505.2,325.0,-0.8,1.8,2471.45,13.29,0.05,86.6
2023-06-28T01:04:03,42.805,6.029,0.017,-0.018,-0.001,103.0,103.0,103.0,13.4,1505.2,332.9,-0.8,1.8,2471.425,13.29,0.024,136.6
2023-06-28T01:07:03,42.805,6.029,0.013,0.01,0.004,102.0,102.0,100.0,13.4,1505.2,329.2,-0.8,1.9,2471.47,13.29,0.016,52.4
2023-06-28T01:10:03,42.805,6.029,0.017,-0.006,-0.013,101.0,102.0,101.0,13.4,1505.2,323.6,-0.8,1.9,2471.486,13.29,0.018,109.4
2023-06-28T01:13:03,42.805,6.029,0.032,0.015,0.007,103.0,102.0,102.0,13.4,1505.2,333.4,-0.8,1.8,2471.451,13.29,0.035,64.9
2023-06-28T01:16:03,42.805,6.029,0.05,0.001,-0.03,101.0,102.0,101.0,13.4,1505.2,327.1,-0.8,1.8,2471.482,13.29,0.05,88.9
2023-06-28T01:19:03,42.805,6.029,0.046,-0.019,-0.016,102.0,102.0,101.0,13.4,1505.2,331.9,-0.8,1.8,2471.449,13.29,0.049,112.4
2023-06-28T01:22:02,42.805,6.029,0.057,0.015,0.017,102.0,102.0,101.0,13.4,1505.2,323.4,-0.8,1.8,2471.461,13.29,0.058,75.3
2023-06-28T01:25:03,42.805,6.029,0.025,-0.016,-0.03,102.0,101.0,102.0,13.4,1505.2,341.2,-0.8,1.8,2471.441,13.29,0.029,122.6
2023-06-28T01:28:03,42.805,6.029,0.041,-0.004,-0.004,102.0,102.0,101.0,13.4,1505.2,352.0,-0.7,1.8,2471.515,13.29,0.041,95.6
2023-06-28T01:31:03,42.805,6.029,0.027,-0.024,-0.031,102.0,101.0,101.0,13.4,1505.2,325.8,-0.8,1.8,2471.446,13.29,0.036,131.6
2023-06-28T01:34:03,42.805,6.029,0.057,-0.032,-0.04,101.0,103.0,101.0,13.4,1505.2,339.3,-0.8,1.8,2471.449,13.29,0.065,119.3
2023-06-28T01:37:03,42.805,6.029,0.021,-0.018,-0.017,102.0,103.0,101.0,13.4,1505.2,353.0,-0.7,1.8,2471.509,13.29,0.027,130.6
2023-06-28T01:40:03,42.805,6.029,0.043,0.004,-0.002,101.0,106.0,101.0,13.3,1505.2,339.4,-0.7,1.8,2471.46,13.29,0.043,84.7
2023-06-28T01:43:03,42.805,6.029,0.033,-0.006,0.005,103.0,103.0,102.0,13.4,1505.2,349.7,-0.7,1.8,2471.478,13.29,0.033,100.3
2023-06-28T01:46:03,42.805,6.029,0.016,-0.002,-0.013,102.0,102.0,102.0,13.4,1505.2,322.9,-0.8,1.8,2471.44,13.29,0.016,97.1
2023-06-28T01:49:02,42.805,6.029,0.02,-0.001,-0.019,101.0,102.0,102.0,13.4,1505.2,341.2,-0.8,1.8,2471.467,13.29,0.02,92.9
2023-06-28T01:52:03,42.805,6.029,0.03,-0.039,-0.016,102.0,102.0,101.0,13.3,1505.2,352.0,-0.8,1.8,2471.446,13.29,0.049,142.4
2023-06-28T01:55:03,42.805,6.029,0.048,-0.002,0.007,103.0,104.0,100.0,13.3,1505.2,342.6,-0.8,1.8,2471.48,13.29,0.048,92.4
2023-06-28T01:58:03,42.805,6.029,0.02,0.006,0.001,101.0,101.0,101.0,13.4,1505.2,331.2,-0.8,1.8,2471.476,13.29,0.02,73.3
2023-06-28T02:04:03,42.805,6.029,0.024,0.0,-0.023,102.0,103.0,101.0,13.4,1505.2,326.0,-0.8,1.8,2471.551,13.28,0.024,90.0
2023-06-28T02:07:03,42.805,6.029,0.045,-0.019,-0.019,102.0,103.0,101.0,13.3,1505.2,338.8,-0.8,1.8,2471.501,13.28,0.048,112.9
2023-06-28T02:10:03,42.805,6.029,0.048,-0.015,0.014,103.0,101.0,102.0,13.3,1505.2,346.2,-0.7,1.8,2471.489,13.28,0.05,107.4
2023-06-28T02:13:03,42.805,6.029,0.009,0.019,-0.006,103.0,100.0,101.0,13.4,1505.2,327.2,-0.8,1.8,2471.471,13.29,0.021,25.3
2023-06-28T02:16:03,42.805,6.029,0.01,-0.01,-0.043,103.0,101.0,102.0,13.3,1505.2,351.4,-0.8,1.8,2471.476,13.29,0.014,135.0
2023-06-28T02:19:03,42.805,6.029,0.054,0.003,-0.015,101.0,101.0,102.0,13.4,1505.2,336.0,-0.8,1.8,2471.477,13.29,0.054,86.8
2023-06-28T02:22:03,42.805,6.029,0.038,-0.014,-0.023,103.0,104.0,100.0,13.4,1505.2,336.9,-0.8,1.8,2471.47,13.29,0.04,110.2
2023-06-28T02:25:03,42.805,6.029,0.046,-0.02,-0.065,102.0,103.0,101.0,13.4,1505.2,331.6,-0.8,1.8,2471.498,13.29,0.05,113.5
2023-06-28T02:28:03,42.805,6.029,0.045,0.001,0.006,103.0,102.0,101.0,13.4,1505.2,344.7,-0.8,1.8,2471.466,13.29,0.045,88.7
2023-06-28T02:31:03,42.805,6.029,0.009,0.042,-0.006,102.0,103.0,101.0,13.3,1505.2,325.7,-0.8,1.9,2471.488,13.29,0.042,12.1
2023-06-28T02:34:03,42.805,6.029,0.037,0.02,-0.014,102.0,103.0,101.0,13.4,1505.2,331.6,-0.8,1.8,2471.479,13.29,0.042,61.6
2023-06-28T02:37:03,42.805,6.029,0.049,0.012,0.032,103.0,101.0,102.0,13.3,1505.2,331.1,-0.8,1.8,2471.444,13.29,0.05,76.2
2023-06-28T02:40:03,42.805,6.029,0.025,0.012,0.003,101.0,104.0,101.0,13.4,1505.2,346.2,-0.8,1.8,2471.478,13.29,0.027,64.4
2023-06-28T02:43:03,42.805,6.029,0.017,0.019,0.002,102.0,102.0,103.0,13.4,1505.2,320.4,-0.8,1.8,2471.479,13.29,0.025,41.8
2023-06-28T02:46:03,42.805,6.029,0.034,0.002,-0.027,103.0,103.0,101.0,13.4,1505.2,330.3,-0.8,1.8,2471.477,13.29,0.034,86.6
2023-06-28T02:49:03,42.805,6.029,0.046,-0.005,-0.007,101.0,103.0,102.0,13.4,1505.2,323.3,-0.8,1.8,2471.491,13.29,0.046,96.2
2023-06-28T02:52:03,42.805,6.029,0.025,0.002,-0.01,101.0,102.0,102.0,13.4,1505.2,329.0,-0.8,1.8,2471.46,13.29,0.025,85.4
2023-06-28T02:55:03,42.805,6.029,0.053,-0.007,-0.008,102.0,101.0,102.0,13.4,1505.2,340.3,-0.8,1.8,2471.466,13.29,0.053,97.5
2023-06-28T02:58:03,42.805,6.029,0.043,0.012,0.002,102.0,102.0,102.0,13.4,1505.2,323.6,-0.8,1.8,2471.467,13.29,0.044,74.4
2023-06-28T03:04:03,42.805,6.029,0.021,-0.007,-0.023,101.0,102.0,102.0,13.3,1505.2,342.7,-0.8,1.8,2471.513,13.28,0.022,108.4
2023-06-28T03:07:03,42.805,6.029,0.041,0.004,0.019,103.0,103.0,102.0,13.4,1505.2,349.1,-0.8,1.8,2471.475,13.28,0.041,84.4
2023-06-28T03:10:03,42.805,6.029,0.049,-0.023,-0.051,102.0,102.0,102.0,13.4,1505.2,342.3,-0.8,1.8,2471.502,13.28,0.054,115.1
2023-06-28T03:13:03,42.805,6.029,0.027,-0.002,-0.024,103.0,102.0,101.0,13.4,1505.2,350.3,-0.8,1.8,2471.515,13.29,0.027,94.2
2023-06-28T03:16:03,42.805,6.029,0.039,0.02,0.005,102.0,102.0,102.0,13.4,1505.2,339.3,-0.7,1.8,2471.507,13.29,0.043,62.9
2023-06-28T03:19:03,42.805,6.029,0.046,0.012,0.018,102.0,102.0,101.0,13.3,1505.2,347.4,-0.8,1.8,2471.488,13.29,0.047,75.4
2023-06-28T03:22:03,42.805,6.029,0.028,0.03,-0.03,103.0,102.0,102.0,13.4,1505.2,320.3,-0.8,1.8,2471.484,13.29,0.041,43.0
2023-06-28T03:25:03,42.805,6.029,0.031,0.002,-0.03,103.0,102.0,102.0,13.4,1505.2,330.2,-0.8,1.8,2471.467,13.29,0.031,86.3
2023-06-28T03:28:03,42.805,6.029,0.043,-0.002,-0.001,101.0,104.0,101.0,13.4,1505.2,352.3,-0.7,1.8,2471.483,13.29,0.043,92.7
2023-06-28T03:31:03,42.805,6.029,0.048,0.016,-0.024,102.0,102.0,102.0,13.3,1505.2,338.2,-0.8,1.8,2471.507,13.29,0.05,71.6
2023-06-28T03:34:03,42.805,6.029,0.025,0.02,-0.001,104.0,103.0,102.0,13.3,1505.2,328.8,-0.8,1.8,2471.495,13.29,0.032,51.3
2023-06-28T03:37:03,42.805,6.029,0.011,0.028,-0.026,102.0,102.0,102.0,13.3,1505.2,324.2,-0.7,1.8,2471.493,13.29,0.03,21.4
2023-06-28T03:40:03,42.805,6.029,0.03,0.024,-0.026,103.0,103.0,101.0,13.4,1505.2,326.5,-0.8,1.8,2471.476,13.29,0.038,51.3
2023-06-28T03:43:03,42.805,6.029,0.0,0.04,-0.022,102.0,103.0,102.0,13.4,1505.2,340.9,-0.8,1.8,2471.471,13.29,0.04,0.0
2023-06-28T03:46:03,42.805,6.029,0.022,0.01,-0.008,102.0,103.0,102.0,13.4,1505.2,330.3,-0.7,1.8,2471.434,13.29,0.024,65.6
2023-06-28T03:49:03,42.805,6.029,0.051,0.005,-0.011,103.0,104.0,101.0,13.3,1505.2,333.4,-0.8,1.8,2471.475,13.29,0.051,84.4
2023-06-28T03:52:03,42.805,6.029,0.041,0.006,-0.041,103.0,104.0,101.0,13.4,1505.2,324.5,-0.7,1.8,2471.432,13.29,0.041,81.7
2023-06-28T03:55:03,42.805,6.029,0.049,-0.007,-0.019,102.0,103.0,102.0,13.4,1505.2,331.5,-0.8,1.8,2471.49,13.29,0.049,98.1
2023-06-28T03:58:03,42.805,6.029,0.04,-0.01,-0.005,103.0,103.0,103.0,13.4,1505.2,341.9,-0.8,1.8,2471.455,13.29,0.041,104.0
2023-06-28T04:04:03,42.805,6.029,0.026,0.043,0.022,102.0,103.0,101.0,13.4,1505.2,324.0,-0.8,1.8,2471.511,13.28,0.05,31.2
2023-06-28T04:07:03,42.805,6.029,0.054,0.007,0.025,103.0,102.0,102.0,13.4,1505.2,340.0,-0.8,1.8,2471.545,13.28,0.054,82.6
2023-06-28T04:10:03,42.805,6.029,0.026,-0.005,-0.006,102.0,102.0,103.0,13.4,1505.2,348.6,-0.8,1.8,2471.481,13.28,0.026,100.9
2023-06-28T04:13:03,42.805,6.029,0.03,0.003,-0.011,102.0,102.0,102.0,13.3,1505.2,351.8,-0.8,1.8,2471.47,13.29,0.03,84.3
2023-06-28T04:16:03,42.805,6.029,0.037,-0.001,-0.05,102.0,103.0,101.0,13.3,1505.2,326.9,-0.8,1.8,2471.473,13.29,0.037,91.5
2023-06-28T04:19:03,42.805,6.029,0.025,0.022,-0.011,103.0,104.0,101.0,13.4,1505.2,340.1,-0.8,1.8,2471.449,13.29,0.033,48.7
2023-06-28T04:22:03,42.805,6.029,0.033,0.013,-0.037,103.0,101.0,102.0,13.4,1505.2,322.7,-0.8,1.8,2471.434,13.29,0.035,68.5
2023-06-28T04:25:03,42.805,6.029,0.036,-0.006,-0.013,102.0,104.0,102.0,13.4,1505.2,340.5,-0.8,1.8,2471.467,13.29,0.036,99.5
2023-06-28T04:28:03,42.805,6.029,0.047,-0.008,-0.008,103.0,102.0,102.0,13.4,1505.2,350.3,-0.8,1.8,2471.459,13.29,0.047,99.7
2023-06-28T04:31:03,42.805,6.029,0.04,0.028,0.003,104.0,103.0,102.0,13.4,1505.2,340.5,-0.8,1.8,2471.395,13.29,0.048,55.0
2023-06-28T04:34:03,42.805,6.029,0.025,0.047,-0.019,103.0,103.0,103.0,13.4,1505.2,329.3,-0.7,1.8,2471.479,13.29,0.053,28.0
2023-06-28T04:37:03,42.805,6.029,0.026,-0.002,-0.012,103.0,103.0,101.0,13.4,1505.2,348.4,-0.8,1.8,2471.459,13.29,0.026,94.4
2023-06-28T04:40:03,42.805,6.029,0.013,0.036,-0.012,104.0,102.0,102.0,13.4,1505.2,322.0,-0.8,1.8,2471.461,13.29,0.038,19.9
2023-06-28T04:43:03,42.805,6.029,0.028,0.009,-0.008,103.0,103.0,102.0,13.4,1505.2,340.8,-0.8,1.8,2471.451,13.29,0.029,72.2
2023-06-28T04:46:03,42.805,6.029,0.038,0.017,-0.031,103.0,103.0,103.0,13.3,1505.2,336.5,-0.8,1.8,2471.407,13.29,0.041,65.9
2023-06-28T04:49:03,42.805,6.029,0.028,0.03,-0.021,104.0,102.0,102.0,13.4,1505.2,330.9,-0.8,1.8,2471.434,13.29,0.041,43.0
2023-06-28T04:52:03,42.805,6.029,0.046,0.007,-0.035,103.0,104.0,101.0,13.3,1505.2,335.6,-0.8,1.8,2471.447,13.29,0.046,81.3
2023-06-28T04:55:03,42.805,6.029,0.005,0.039,0.0,102.0,104.0,102.0,13.4,1505.2,326.5,-0.8,1.8,2471.393,13.29,0.039,7.3
2023-06-28T04:58:03,42.805,6.029,0.055,-0.002,-0.013,103.0,104.0,102.0,13.4,1505.2,338.5,-0.8,1.8,2471.464,13.29,0.055,92.1
2023-06-28T05:04:03,42.805,6.029,0.004,0.03,-0.012,103.0,104.0,102.0,13.4,1505.2,329.4,-0.8,1.8,2471.474,13.28,0.03,7.6
2023-06-28T05:07:03,42.805,6.029,0.03,0.026,0.003,104.0,104.0,102.0,13.3,1505.2,330.3,-0.8,1.8,2471.503,13.28,0.039,49.1
2023-06-28T05:10:03,42.805,6.029,0.043,0.004,-0.012,103.0,104.0,101.0,13.3,1505.2,343.2,-0.8,1.8,2471.493,13.28,0.043,84.7
2023-06-28T05:13:03,42.805,6.029,0.038,0.021,0.003,102.0,103.0,102.0,13.4,1505.2,340.1,-0.8,1.8,2471.472,13.29,0.043,61.1
2023-06-28T05:16:03,42.805,6.029,0.046,-0.003,-0.005,101.0,103.0,102.0,13.4,1505.2,349.7,-0.8,1.8,2471.472,13.29,0.046,93.7
2023-06-28T05:19:03,42.805,6.029,0.033,0.018,0.009,102.0,104.0,101.0,13.4,1505.2,327.5,-0.8,1.8,2471.414,13.29,0.037,61.4
2023-06-28T05:22:03,42.805,6.029,0.031,0.016,-0.018,103.0,105.0,101.0,13.3,1505.2,329.5,-0.7,1.8,2471.444,13.29,0.034,62.7
2023-06-28T05:25:03,42.805,6.029,0.064,0.003,0.018,102.0,105.0,102.0,13.4,1505.2,339.1,-0.7,1.8,2471.414,13.29,0.064,87.3
2023-06-28T05:28:03,42.805,6.029,0.056,0.009,-0.002,103.0,103.0,101.0,13.4,1505.2,345.1,-0.8,1.8,2471.433,13.29,0.056,80.9
2023-06-28T05:31:03,42.805,6.029,0.035,0.02,-0.012,103.0,102.0,101.0,13.4,1505.2,332.9,-0.8,1.8,2471.395,13.29,0.04,60.3
2023-06-28T05:34:03,42.805,6.029,0.031,0.015,0.01,103.0,104.0,102.0,13.4,1505.2,349.5,-0.8,1.8,2471.45,13.29,0.034,64.2
2023-06-28T05:37:03,42.805,6.029,0.051,0.005,-0.018,102.0,104.0,101.0,13.3,1505.2,325.8,-0.7,1.8,2471.43,13.29,0.051,84.4
2023-06-28T05:40:03,42.805,6.029,0.029,0.018,-0.003,103.0,103.0,102.0,13.4,1505.2,333.4,-0.8,1.8,2471.406,13.29,0.034,58.2
2023-06-28T05:43:03,42.805,6.029,0.019,0.036,-0.011,105.0,104.0,100.0,13.4,1505.2,343.6,-0.8,1.8,2471.395,13.29,0.04,27.8
2023-06-28T05:46:03,42.805,6.029,0.033,0.028,0.012,104.0,103.0,102.0,13.4,1505.2,327.1,-0.7,1.8,2471.417,13.29,0.043,49.7
2023-06-28T05:49:03,42.805,6.029,0.009,0.015,-0.013,102.0,103.0,102.0,13.3,1505.2,345.2,-0.8,1.8,2471.396,13.29,0.017,31.0
2023-06-28T05:52:03,42.805,6.029,0.027,0.016,-0.009,103.0,104.0,102.0,13.4,1505.2,336.8,-0.7,1.8,2471.404,13.29,0.031,59.3
2023-06-28T05:55:03,42.805,6.029,0.032,0.018,0.025,102.0,105.0,102.0,13.4,1505.2,351.4,-0.7,1.8,2471.424,13.29,0.036,60.6
2023-06-28T05:58:03,42.805,6.029,0.069,-0.009,-0.005,103.0,105.0,101.0,13.4,1505.2,341.5,-0.7,1.8,2471.431,13.29,0.069,97.4
2023-06-28T06:04:03,42.805,6.029,0.047,0.008,-0.003,102.0,103.0,102.0,13.4,1505.2,330.8,-0.8,1.8,2471.496,13.28,0.047,80.3
2023-06-28T06:07:03,42.805,6.029,0.037,0.011,-0.006,102.0,103.0,102.0,13.3,1505.2,327.1,-0.8,1.8,2471.463,13.28,0.038,73.4
2023-06-28T06:10:03,42.805,6.029,0.05,0.017,0.002,104.0,104.0,101.0,13.3,1505.2,334.2,-0.8,1.8,2471.461,13.28,0.052,71.2
2023-06-28T06:13:03,42.805,6.029,0.039,0.006,-0.027,102.0,104.0,101.0,13.3,1505.2,330.7,-0.8,1.8,2471.419,13.29,0.039,81.3
2023-06-28T06:16:03,42.805,6.029,0.028,0.027,0.022,102.0,104.0,101.0,13.3,1505.2,332.1,-0.8,1.8,2471.426,13.29,0.038,46.0
2023-06-28T06:19:03,42.805,6.029,0.052,0.007,0.003,103.0,104.0,101.0,13.3,1505.2,331.3,-0.8,1.8,2471.399,13.29,0.052,82.3
2023-06-28T06:22:03,42.805,6.029,0.046,0.01,-0.01,103.0,104.0,101.0,13.4,1505.2,345.7,-0.8,1.8,2471.431,13.29,0.047,77.7
2023-06-28T06:25:03,42.805,6.029,0.042,0.001,-0.02,102.0,103.0,102.0,13.4,1505.2,344.0,-0.8,1.8,2471.411,13.29,0.042,88.6
2023-06-28T06:28:03,42.805,6.029,0.063,-0.006,0.011,102.0,103.0,101.0,13.4,1505.2,338.2,-0.8,1.8,2471.389,13.29,0.063,95.4
2023-06-28T06:31:03,42.805,6.029,0.042,0.022,-0.025,102.0,104.0,102.0,13.3,1505.2,323.3,-0.8,1.8,2471.45,13.29,0.047,62.4
2023-06-28T06:34:03,42.805,6.029,0.037,0.022,-0.014,103.0,105.0,101.0,13.4,1505.2,332.4,-0.8,1.8,2471.412,13.29,0.043,59.3
2023-06-28T06:37:03,42.805,6.029,0.047,0.023,0.001,102.0,104.0,102.0,13.4,1505.2,330.0,-0.8,1.8,2471.412,13.29,0.052,63.9
2023-06-28T06:40:03,42.805,6.029,0.027,0.043,0.013,101.0,103.0,102.0,13.4,1505.2,332.5,-0.8,1.8,2471.394,13.29,0.05,32.1
2023-06-28T06:43:03,42.805,6.029,0.03,0.03,0.008,102.0,105.0,102.0,13.4,1505.2,333.8,-0.8,1.8,2471.4,13.29,0.042,45.0
2023-06-28T06:46:03,42.805,6.029,0.053,0.003,0.0,101.0,104.0,101.0,13.4,1505.2,340.4,-0.8,1.8,2471.399,13.29,0.053,86.8
2023-06-28T06:49:03,42.805,6.029,0.04,0.01,-0.011,102.0,105.0,100.0,13.4,1505.2,324.7,-0.8,1.8,2471.38,13.29,0.041,76.0
2023-06-28T06:52:03,42.805,6.029,0.008,-0.008,-0.049,102.0,105.0,100.0,13.3,1505.2,338.4,-0.8,1.8,2471.402,13.29,0.011,135.0
2023-06-28T06:55:03,42.805,6.029,0.038,0.003,-0.036,103.0,105.0,101.0,13.3,1505.2,347.4,-0.7,1.8,2471.366,13.29,0.038,85.5
2023-06-28T06:58:03,42.805,6.029,0.059,0.004,0.02,103.0,105.0,100.0,13.4,1505.2,337.9,-0.8,1.8,2471.406,13.29,0.059,86.1
2023-06-28T07:04:03,42.805,6.029,0.054,0.007,0.003,101.0,105.0,101.0,13.4,1505.2,337.0,-0.8,1.8,2471.44,13.28,0.054,82.6
2023-06-28T07:07:03,42.805,6.029,0.0,0.03,-0.029,102.0,105.0,100.0,13.3,1505.2,337.5,-0.8,1.8,2471.416,13.28,0.03,0.0
2023-06-28T07:10:03,42.805,6.029,0.023,0.012,0.0,102.0,105.0,101.0,13.3,1505.2,344.4,-0.8,1.8,2471.42,13.28,0.025,62.4
2023-06-28T07:13:03,42.805,6.029,0.031,-0.009,0.02,102.0,105.0,100.0,13.4,1505.2,341.2,-0.8,1.8,2471.431,13.29,0.032,106.2
2023-06-28T07:16:03,42.805,6.029,0.024,0.017,0.025,102.0,103.0,102.0,13.3,1505.2,331.2,-0.8,1.8,2471.387,13.29,0.029,54.7
2023-06-28T07:19:03,42.805,6.029,0.036,0.029,0.028,102.0,104.0,101.0,13.3,1505.2,332.1,-0.7,1.8,2471.358,13.29,0.046,51.1
2023-06-28T07:22:03,42.805,6.029,0.05,0.009,0.021,102.0,106.0,101.0,13.4,1505.2,332.3,-0.7,1.8,2471.419,13.29,0.05,79.8
2023-06-28T07:25:03,42.805,6.029,0.036,-0.001,-0.028,101.0,104.0,101.0,13.3,1505.2,324.5,-0.8,1.8,2471.409,13.29,0.036,91.6
2023-06-28T07:28:03,42.805,6.029,0.054,-0.005,0.002,102.0,106.0,101.0,13.4,1505.2,348.9,-0.7,1.8,2471.4,13.29,0.054,95.3
2023-06-28T07:31:03,42.805,6.029,0.021,0.018,0.011,103.0,106.0,100.0,13.4,1505.2,323.7,-0.7,1.8,2471.389,13.29,0.027,49.4
2023-06-28T07:34:03,42.805,6.029,0.044,-0.017,-0.015,102.0,105.0,102.0,13.4,1505.2,340.0,-0.8,1.8,2471.37,13.29,0.047,111.1
2023-06-28T07:37:03,42.805,6.029,0.033,-0.004,0.012,103.0,105.0,101.0,13.4,1505.2,345.4,-0.8,1.8,2471.342,13.29,0.033,96.9
2023-06-28T07:40:03,42.805,6.029,0.049,0.009,-0.014,102.0,106.0,101.0,13.4,1505.2,327.9,-0.8,1.8,2471.385,13.29,0.049,79.6
2023-06-28T07:43:03,42.805,6.029,0.036,0.0,0.001,102.0,106.0,101.0,13.4,1505.2,341.8,-0.8,1.8,2471.363,13.29,0.036,90.0
2023-06-28T07:46:03,42.805,6.029,0.036,0.009,0.011,102.0,107.0,101.0,13.4,1505.2,328.5,-0.8,1.8,2471.373,13.29,0.037,76.0
2023-06-28T07:49:03,42.805,6.029,0.027,0.016,-0.009,102.0,106.0,101.0,13.4,1505.2,323.3,-0.7,1.8,2471.347,13.29,0.031,59.3
2023-06-28T07:52:03,42.805,6.029,0.004,0.013,0.0,103.0,105.0,101.0,13.3,1505.2,337.8,-0.7,1.8,2471.389,13.29,0.013,17.1
2023-06-28T07:55:03,42.805,6.029,0.043,0.01,0.02,103.0,107.0,102.0,13.4,1505.2,329.0,-0.7,1.8,2471.426,13.29,0.044,76.9
2023-06-28T07:58:03,42.805,6.029,0.045,0.019,0.029,102.0,105.0,101.0,13.3,1505.2,344.7,-0.8,1.8,2471.355,13.29,0.048,67.1
2023-06-28T08:04:03,42.805,6.029,0.059,-0.017,0.018,101.0,106.0,102.0,13.4,1505.2,348.4,-0.7,1.8,2471.403,13.28,0.061,106.1
2023-06-28T08:07:03,42.805,6.029,0.029,0.006,0.024,101.0,106.0,101.0,13.4,1505.2,333.9,-0.8,1.8,2471.406,13.28,0.029,78.3
2023-06-28T08:10:03,42.805,6.029,0.021,0.024,-0.019,102.0,105.0,102.0,13.4,1505.2,329.8,-0.7,1.8,2471.408,13.28,0.031,41.2
2023-06-28T08:13:03,42.805,6.029,0.039,-0.004,-0.014,103.0,104.0,102.0,13.3,1505.2,342.5,-0.7,1.8,2471.382,13.29,0.039,95.9
2023-06-28T08:16:03,42.805,6.029,0.027,0.015,-0.012,101.0,106.0,102.0,13.4,1505.2,326.5,-0.7,1.8,2471.38,13.29,0.03,60.9
2023-06-28T08:19:03,42.805,6.029,0.024,0.006,-0.022,102.0,105.0,103.0,13.3,1505.2,331.0,-0.7,1.8,2471.391,13.29,0.024,76.0
2023-06-28T08:22:03,42.805,6.029,0.017,0.009,-0.034,102.0,106.0,102.0,13.4,1505.2,321.6,-0.8,1.9,2471.382,13.29,0.019,62.1
2023-06-28T08:25:03,42.805,6.029,0.021,0.025,-0.014,102.0,107.0,102.0,13.4,1505.2,331.8,-0.8,1.8,2471.347,13.29,0.032,40.0
2023-06-28T08:28:03,42.805,6.029,0.056,0.032,0.01,102.0,106.0,102.0,13.4,1505.2,325.3,-0.8,1.8,2471.306,13.29,0.064,60.3
2023-06-28T08:31:03,42.805,6.029,0.013,0.026,-0.007,103.0,106.0,102.0,13.4,1505.2,325.3,-0.8,1.8,2471.362,13.29,0.029,26.6
2023-06-28T08:34:03,42.805,6.029,0.032,-0.001,0.011,102.0,107.0,102.0,13.4,1505.2,340.4,-0.8,1.9,2471.376,13.29,0.032,91.8
2023-06-28T08:37:03,42.805,6.029,0.023,0.015,-0.034,102.0,106.0,102.0,13.4,1505.2,321.9,-0.8,1.8,2471.342,13.29,0.027,56.9
2023-06-28T08:40:03,42.805,6.029,0.018,0.021,-0.012,102.0,105.0,102.0,13.4,1505.2,340.4,-0.7,1.8,2471.389,13.29,0.027,40.6
2023-06-28T08:43:03,42.805,6.029,0.051,-0.015,0.001,103.0,105.0,101.0,13.4,1505.2,351.8,-0.8,1.8,2471.383,13.29,0.053,106.4
2023-06-28T08:46:03,42.805,6.029,0.043,0.036,0.006,103.0,107.0,100.0,13.4,1505.2,324.5,-0.8,1.8,2471.377,13.29,0.056,50.1
2023-06-28T08:49:03,42.805,6.029,0.046,0.017,0.005,101.0,106.0,102.0,13.4,1505.2,340.1,-0.8,1.8,2471.342,13.29,0.049,69.7
2023-06-28T08:52:03,42.805,6.029,0.043,-0.004,-0.021,103.0,105.0,101.0,13.4,1505.2,347.9,-0.8,1.8,2471.386,13.29,0.043,95.3
2023-06-28T08:55:03,42.805,6.029,0.05,0.009,0.005,102.0,105.0,101.0,13.4,1505.2,322.2,-0.8,1.8,2471.372,13.29,0.05,79.8
2023-06-28T08:58:03,42.805,6.029,0.05,-0.005,-0.027,102.0,104.0,101.0,13.4,1505.2,330.5,-0.7,1.8,2471.355,13.29,0.05,95.7
2023-06-28T09:04:03,42.805,6.029,0.052,0.014,0.005,103.0,104.0,101.0,13.3,1505.2,346.5,-0.7,1.8,2471.381,13.28,0.053,74.9
2023-06-28T09:07:03,42.805,6.029,0.046,0.014,0.01,103.0,106.0,101.0,13.3,1505.2,328.8,-0.8,1.8,2471.372,13.28,0.048,73.1
2023-06-28T09:10:03,42.805,6.029,0.064,-0.005,0.037,103.0,104.0,101.0,13.4,1505.2,349.3,-0.8,1.8,2471.345,13.28,0.064,94.5
2023-06-28T09:13:03,42.805,6.029,0.07,0.023,0.005,102.0,105.0,101.0,13.3,1505.2,330.6,-0.8,1.8,2471.35,13.28,0.073,71.8
2023-06-28T09:16:03,42.805,6.029,0.033,0.005,0.004,101.0,106.0,102.0,13.4,1505.2,327.9,-0.8,1.8,2471.329,13.29,0.033,81.4
2023-06-28T09:19:03,42.805,6.029,0.032,0.015,-0.007,102.0,105.0,100.0,13.4,1505.2,350.3,-0.7,1.8,2471.345,13.29,0.035,64.9
2023-06-28T09:22:03,42.805,6.029,0.056,0.017,0.007,102.0,106.0,101.0,13.4,1505.2,335.5,-0.8,1.8,2471.323,13.29,0.058,73.1
2023-06-28T09:25:03,42.805,6.029,0.036,0.011,-0.002,104.0,107.0,99.0,13.4,1505.2,330.7,-0.8,1.8,2471.341,13.29,0.037,73.0
2023-06-28T09:28:03,42.805,6.029,0.051,0.005,0.006,103.0,107.0,100.0,13.4,1505.2,345.4,-0.8,1.8,2471.357,13.29,0.051,84.4
2023-06-28T09:31:03,42.805,6.029,0.056,-0.002,0.001,101.0,106.0,100.0,13.4,1505.2,330.7,-0.7,1.8,2471.375,13.29,0.056,92.0
2023-06-28T09:34:03,42.805,6.029,0.039,0.009,0.027,102.0,104.0,101.0,13.4,1505.2,341.9,-0.8,1.8,2471.329,13.29,0.04,77.0
2023-06-28T09:37:03,42.805,6.029,0.052,0.008,-0.037,102.0,105.0,101.0,13.4,1505.2,321.3,-0.8,1.8,2471.373,13.29,0.052,81.3
2023-06-28T09:40:03,42.805,6.029,0.048,0.012,0.013,102.0,105.0,100.0,13.3,1505.2,328.1,-0.8,1.8,2471.357,13.29,0.049,76.0
2023-06-28T09:43:03,42.805,6.029,0.064,0.0,0.04,102.0,107.0,101.0,13.3,1505.2,350.5,-0.8,1.8,2471.342,13.29,0.063,90.0
2023-06-28T09:46:03,42.805,6.029,0.042,0.027,0.021,102.0,106.0,100.0,13.4,1505.2,323.9,-0.7,1.8,2471.355,13.29,0.049,57.3
2023-06-28T09:49:03,42.805,6.029,0.034,0.0,-0.034,102.0,106.0,100.0,13.4,1505.2,351.8,-0.8,1.8,2471.367,13.29,0.034,90.0
2023-06-28T09:52:03,42.805,6.029,0.044,0.021,0.0,102.0,104.0,100.0,13.4,1505.2,329.2,-0.8,1.8,2471.329,13.29,0.048,64.5
2023-06-28T09:55:03,42.805,6.029,0.043,0.002,0.014,102.0,105.0,101.0,13.4,1505.2,348.2,-0.8,1.8,2471.323,13.29,0.043,87.3
2023-06-28T09:58:03,42.805,6.029,0.063,-0.018,-0.006,102.0,106.0,101.0,13.4,1505.2,351.0,-0.8,1.8,2471.356,13.29,0.065,105.9
2023-06-28T10:04:03,42.805,6.029,0.074,0.0,-0.019,101.0,106.0,101.0,13.4,1505.2,330.7,-0.8,1.8,2471.374,13.28,0.073,90.0